Simultaneous Nadir Overpasses (SNOs) Predictions

Prediction of SNOs between AQUA and METOP-B Satellite Orbit:

Table of predicted SNOs for the next 14.0 days since TLE Epoch: 8/7/2021
Index Date (AQUA) Time (AQUA) Lat,Lon (AQUA) SZA (AQUA ) Date (METOP-B) Time (METOP-B) Lat,Lon (METOP-B) SZA (METOP-B ) Distance(km) Time Diff (sec)
1 08/09/2021 17:52:54 73.74, -93.84 58.16 08/09/2021 17:52:14 73.72, -93.90 58.15 2.53 40
2 08/09/2021 18:42:21 -73.83, 73.61 121.74 08/09/2021 18:42:54 -73.80, 73.60 121.78 3.28 33
3 08/12/2021 13:27:09 73.74, -27.41 58.99 08/12/2021 13:26:36 73.77, -27.39 59.02 2.41 33
4 08/12/2021 14:16:36 -73.82, 140.06 120.92 08/12/2021 14:17:16 -73.84, 140.11 120.91 2.52 40
5 08/15/2021 09:01:24 73.75, 39.01 59.87 08/15/2021 09:00:59 73.75, 38.99 59.87 0.51 25
6 08/15/2021 09:50:51 -73.83,-153.51 120.05 08/15/2021 09:51:39 -73.83,-153.50 120.05 0.62 48
7 08/18/2021 03:46:00 -73.22, -61.05 119.83 08/18/2021 03:44:52 -73.19, -63.21 119.76 69.46 68
8 08/18/2021 04:35:38 73.77, 105.41 60.77 08/18/2021 04:35:20 73.79, 105.49 60.80 3.29 18
9 08/18/2021 05:25:05 -73.84, -87.09 119.15 08/18/2021 05:26:01 -73.82, -87.11 119.17 1.91 56
10 08/20/2021 23:20:21 -73.54, 4.70 118.57 08/20/2021 23:19:09 -73.48, 3.84 118.59 28.15 72
11 08/21/2021 00:09:53 73.79, 171.80 61.71 08/21/2021 00:09:43 73.78, 171.86 61.70 2.55 10
12 08/21/2021 00:59:20 -73.85, -20.69 118.21 08/21/2021 01:00:23 -73.86, -20.62 118.22 2.21 63



Historial Predications of SNOs between AQUA and METOP-B
